Location: Canet
(43.3261°N, 5.3723°E)
Time: 18:23:41
(UTC+00:00)

SJ 16-02 - Pass Details

Date: 24 January 2021
Orbit: 606 x 616 km, 75.0° (Epoch: 08 March)

Event Time Altitude Azimuth Distance (km) Brightness Sun altitude
Rises 18:08:19 0° 219° (SW) 2,864 5.6 -16.0°
Reaches altitude 10° 18:10:41 10° 228° (SW) 1,962 4.8 -16.5°
Maximum altitude 18:14:43 35° 295° (WNW) 985 2.9 -17.2°
Drops below altitude 10° 18:18:47 10° 2° (N) 1,970 3.8 -17.9°
Enters shadow 18:20:32 - 10° (N) 2,626 4.4 -18.2°
